ROMMA est une association bénévole à but non lucratif. Votre soutien est indispensable : ADHERER à ROMMA ou FAIRE un DON

Saint-Laurent-du-Pont - (38, Isère)

Chartreuse (410 m)   Longitude: 05° 43' 24" E   Latitude: 45° 23' 14" N Station partenaire n°156
 

Détail journalier du     <<     >>

Température Precipitation Humidité Pression Vent Dir Rafale Dir. rafale
Heure (°C) (mm) (%) (hPa) (km/h) (km/h)
01:00 9.709410212E10E
02:00 9.309210214E10E
03:00 7.409510212ESE6E
04:00 6.409510201E5E
05:00 5.709610201NE5ENE
06:00 5.409710202NE6NE
07:00 4.809710202N5ESE
08:00 4.209710202N5N
09:00 4.809810212ENE5NNO
10:00 9.408610212NE6NE
11:00 11.207710214NE13NE
12:00 12.807210213ENE13NE
13:00 13.606710203NNE11O
14:00 14.607210204N11NNO
15:00 15.306710194N15NNE
16:00 15.406810193N11NNO
17:00 15.406210185N13NNO
18:00 15.206210193N10ENE
19:00 12.207910193NE8NNE
20:00 11.708010193ENE10ENE
21:00 10.508710202NE6ENE
22:00 9.808710192NE8E
23:00 7.309210192E5S
minuit 6.109410201ESE5SE

Graphique du 03-10-2019

 

Serveur OMMA